Wind_Speed
13 16 13 15 17 17 18 21 23 32 33 38 33 37 28 27 28 30 32 35 38 39 41 34 37 38 39 43 40 37 36 34 29 27 26 33 51 47
12 11 14 13 16 16 17 18 21 26 37 40 39 39 35 34 35 39 40 43 43 43 42 35 34 37 40 39 37 37 36 33 28 24 23 28 52 54
9 10 12 14 14 18 20 20 21 23 31 46 41 37 44 45 44 43 42 42 45 38 34 33 37 36 39 38 38 36 33 31 27 24 19 29 17 52
10 12 14 15 17 18 20 22 26 29 31 34 47 46 41 44 42 44 45 44 38 35 37 33 36 32 33 35 35 33 30 31 27 27 24 23 35 47
10 13 16 17 19 23 25 28 32 34 34 32 43 41 41 39 40 38 43 41 36 33 35 28 26 25 33 32 29 36 34 31 28 27 27 21 24 33
14 16 18 20 23 25 27 28 30 33 34 31 35 40 36 37 35 37 42 37 37 34 33 32 30 30 29 33 35 34 29 28 28 28 24 26 22 20
16 17 17 19 20 22 26 28 29 33 36 36 36 37 39 39 38 39 41 42 43 37 35 27 26 29 32 35 35 30 29 29 27 27 23 22 21 15
14 16 20 23 21 25 26 24 26 32 36 36 37 38 37 37 38 38 38 40 41 35 31 34 28 31 34 32 30 30 29 29 27 26 23 23 21 22
16 20 23 24 26 27 26 28 32 31 26 27 30 30 34 33 34 36 36 36 38 38 32 34 29 33 30 26 27 29 29 28 25 22 23 20 23 25
16 20 22 24 25 26 28 33 36 31 25 22 24 28 30 31 30 32 33 35 38 35 28 30 30 29 26 25 23 24 29 24 19 17 21 21 19 60
17 21 23 24 23 25 30 36 35 30 25 25 25 26 27 26 23 26 28 29 32 30 28 21 25 27 30 21 22 31 22 15 10 12 17 11 27 55
18 21 22 22 24 26 29 29 31 30 29 29 27 27 26 24 23 24 26 27 28 27 17 22 26 23 18 16 31 28 14 4 3 8 11 4 61 65
20 23 23 23 23 23 23 23 25 28 29 28 28 27 27 26 24 22 21 19 21 22 24 19 21 22 16 21 24 22 16 2 4 8 14 24 32 39
19 22 23 23 22 22 21 22 23 24 24 25 27 27 28 25 24 23 20 17 16 17 18 13 17 15 15 16 14 11 9 10 13 9 29 41 50 56
18 22 23 21 21 21 20 21 22 23 22 24 25 26 23 22 22 23 17 15 18 17 15 9 7 7 7 10 4 11 16 22 31 36 40 47 53 57
18 21 23 22 20 18 19 22 23 21 21 23 24 22 20 20 19 21 18 15 14 17 13 10 6 3 4 8 8 11 12 15 29 37 45 48 49 53
19 22 24 22 21 22 21 22 22 23 21 24 22 21 20 19 18 17 14 13 13 11 11 11 8 9 15 11 14 19 23 25 27 33 40 42 40 41
18 21 24 21 19 21 22 22 22 23 21 20 21 19 19 17 17 14 14 10 8 7 8 8 9 14 15 18 22 28 33 35 35 39 42 46 42 37
17 18 20 22 19 19 20 20 21 22 20 19 19 17 17 15 13 11 11 7 6 6 6 9 13 14 22 26 21 25 31 31 36 39 39 40 41 35
17 17 18 19 19 18 19 20 19 20 19 19 19 14 15 13 11 8 7 4 3 4 5 7 8 14 21 26 26 22 23 27 30 32 35 36 35 31
17 17 16 18 20 18 17 19 18 18 18 18 17 17 15 11 9 6 3 1 2 2 3 7 10 10 17 24 26 22 21 21 23 25 29 32 32 31
19 18 17 18 19 19 16 18 17 18 17 16 15 14 14 10 6 3 2 3 4 5 6 10 11 14 21 24 28 26 22 19 19 21 25 24 28 22
20 19 19 19 19 18 18 17 17 17 15 15 14 12 11 8 4 3 5 7 4 8 12 15 17 17 21 24 26 26 24 23 23 19 21 15 11 17
Wind_Direction
289 288 293 286 288 295 294 297 303 306 307 301 307 311 321 308 305 302 296 304 303 296 299 295 297 300 302 302 303 298 303 291 299 276 286 255 221 231
285 284 289 300 295 299 298 297 291 298 298 297 304 307 310 302 298 297 293 288 289 291 295 295 295 296 302 301 303 298 299 294 292 284 300 257 232 225
290 290 287 296 303 295 300 302 304 293 290 295 301 300 299 305 304 303 303 298 291 290 290 292 291 293 294 301 300 298 292 293 286 279 288 263 260 210
282 293 304 306 305 306 297 287 287 289 296 296 301 303 306 312 318 317 315 316 316 304 293 290 293 283 287 301 299 299 293 292 286 275 268 262 232 204
294 301 303 298 296 294 297 297 298 298 300 301 303 307 308 309 308 306 307 312 313 312 303 288 301 294 297 300 298 309 295 287 285 276 263 257 243 232
309 308 305 301 303 307 306 308 309 310 313 313 310 309 311 315 314 319 320 320 316 310 309 310 298 298 291 290 299 302 291 288 277 279 262 253 261 253
314 319 317 317 314 314 318 316 317 316 317 316 313 311 311 319 323 320 317 318 317 319 315 314 304 296 289 299 304 301 299 295 279 277 261 244 242 265
328 327 328 329 323 320 322 320 317 317 315 315 311 309 314 320 314 315 317 318 314 323 311 307 305 301 305 308 306 304 299 292 284 269 261 249 231 239
335 334 333 331 328 325 322 324 329 325 318 315 311 311 314 318 320 318 314 311 308 312 316 308 313 315 318 316 313 308 301 290 283 269 254 247 247 226
335 331 330 329 327 327 325 329 328 328 331 324 317 316 317 319 316 312 307 306 306 311 320 309 319 319 324 327 321 318 311 294 278 260 236 242 256 185
337 337 334 333 335 332 329 327 325 332 331 327 323 324 323 325 323 318 315 312 311 313 317 306 314 325 330 332 327 327 314 295 265 250 234 240 199 180
341 340 340 338 335 333 327 327 329 332 331 329 328 328 334 332 327 320 313 306 307 312 311 316 315 334 331 327 335 338 342 306 217 213 217 183 171 158
342 341 341 337 336 330 331 336 331 331 328 327 331 337 337 337 336 333 327 319 311 302 307 307 302 319 327 322 333 349 356 333 223 188 178 168 184 176
342 341 339 338 336 336 343 336 334 333 333 334 335 335 341 345 343 335 332 330 335 321 317 302 291 306 320 326 354 24 85 122 151 179 161 159 156 166
343 342 337 336 339 344 342 340 344 344 339 338 336 337 346 347 340 338 340 340 344 347 337 324 303 328 318 324 35 76 104 112 128 143 154 155 149 150
342 340 337 340 344 344 340 347 353 348 343 338 336 340 348 349 346 345 349 356 3 0 13 24 37 30 16 103 104 105 110 106 123 134 143 145 148 148
339 341 341 342 342 343 344 352 352 348 342 340 340 343 349 351 354 351 355 5 6 26 42 40 60 82 104 107 100 110 118 121 126 129 138 132 133 137
336 342 342 338 335 336 344 347 344 340 339 339 339 340 345 350 356 357 355 9 20 41 78 84 99 113 107 107 121 125 126 123 130 136 137 136 133 134
328 337 336 334 332 332 339 341 337 337 340 338 334 337 340 352 359 360 357 10 28 47 81 125 123 125 117 95 112 127 132 132 134 128 128 128 128 131
319 325 329 329 330 330 333 335 337 338 341 343 345 336 336 346 357 349 345 6 59 80 102 123 139 135 135 126 117 122 134 133 132 127 128 128 125 127
304 308 316 320 326 328 330 328 333 333 335 335 338 333 335 341 346 342 321 214 181 160 149 151 154 168 150 145 130 131 128 135 135 132 135 133 134 139
300 298 303 308 315 324 325 327 323 324 327 328 330 328 329 334 346 22 76 222 229 208 161 151 158 168 159 159 142 137 134 133 135 136 140 143 143 152
288 289 296 298 306 314 320 317 320 322 325 323 327 325 316 316 313 253 266 271 240 174 159 143 158 168 159 153 146 142 142 141 139 137 129 118 115 137
Height
1515 1515 1514 1512 1511 1510 1510 1508 1504 1493 1485 1484 1484 1484 1483 1482 1475 1472 1468 1464 1459 1456 1452 1448 1443 1439 1436 1431 1427 1422 1417 1413 1410 1408 1406 1404 1408 1411
1511 1510 1509 1508 1506 1505 1504 1502 1499 1494 1482 1481 1477 1476 1474 1469 1466 1462 1459 1454 1449 1446 1443 1440 1435 1432 1429 1424 1419 1414 1410 1406 1403 1399 1397 1397 1399 1403
1507 1507 1505 1503 1502 1500 1498 1496 1494 1490 1483 1469 1473 1469 1463 1460 1454 1451 1448 1444 1439 1435 1434 1432 1427 1424 1421 1416 1411 1406 1402 1397 1396 1393 1389 1388 1387 1389
1504 1503 1501 1499 1497 1496 1493 1490 1487 1484 1479 1470 1461 1458 1455 1451 1447 1441 1437 1435 1429 1424 1424 1422 1418 1414 1412 1409 1403 1398 1394 1389 1388 1388 1385 1384 1385 1387
1499 1498 1497 1495 1492 1489 1488 1484 1480 1475 1472 1468 1456 1454 1449 1446 1441 1436 1432 1426 1422 1419 1415 1412 1408 1407 1404 1401 1396 1392 1387 1382 1379 1380 1379 1378 1380 1381
1496 1495 1493 1490 1487 1484 1480 1477 1472 1467 1461 1458 1454 1447 1444 1439 1437 1430 1421 1420 1414 1411 1408 1404 1400 1399 1397 1394 1391 1385 1379 1375 1372 1371 1373 1373 1373 1373
1491 1490 1489 1485 1483 1479 1474 1470 1467 1463 1459 1452 1448 1443 1438 1433 1431 1427 1421 1413 1406 1405 1399 1397 1395 1392 1390 1387 1382 1377 1373 1368 1364 1363 1363 1365 1365 1367
1487 1486 1484 1481 1478 1475 1471 1467 1464 1457 1453 1449 1446 1439 1433 1430 1426 1423 1417 1410 1400 1399 1395 1390 1389 1386 1383 1379 1374 1370 1366 1361 1357 1356 1357 1358 1361 1362
1482 1480 1478 1475 1472 1467 1464 1461 1457 1453 1449 1444 1439 1437 1430 1427 1422 1416 1412 1407 1400 1395 1392 1384 1383 1379 1376 1371 1367 1362 1357 1353 1351 1349 1350 1353 1354 1356
1480 1478 1475 1472 1468 1463 1458 1454 1451 1448 1444 1441 1436 1432 1428 1422 1418 1413 1406 1400 1394 1390 1388 1380 1378 1374 1370 1366 1362 1357 1350 1345 1345 1345 1346 1347 1348 1348
1478 1475 1472 1468 1463 1459 1454 1450 1446 1440 1439 1436 1432 1427 1423 1418 1413 1407 1402 1397 1389 1385 1383 1378 1374 1370 1366 1362 1359 1352 1345 1342 1342 1342 1345 1345 1345 1349
1474 1470 1467 1463 1461 1457 1452 1446 1442 1438 1433 1430 1427 1422 1418 1412 1409 1404 1399 1393 1390 1382 1380 1377 1373 1371 1364 1360 1357 1350 1344 1342 1343 1345 1347 1344 1346 1349
1468 1466 1463 1460 1457 1453 1449 1445 1440 1435 1431 1428 1422 1417 1413 1408 1403 1399 1395 1391 1386 1382 1378 1376 1372 1370 1368 1363 1358 1350 1345 1343 1343 1346 1348 1354 1356 1359
1465 1461 1458 1456 1453 1449 1446 1442 1437 1433 1430 1425 1420 1415 1409 1404 1400 1396 1393 1389 1385 1380 1375 1373 1371 1370 1368 1364 1360 1357 1353 1348 1347 1348 1351 1353 1358 1365
1461 1457 1455 1451 1448 1444 1442 1438 1434 1430 1428 1423 1418 1413 1408 1403 1399 1395 1392 1388 1384 1379 1375 1372 1371 1370 1369 1366 1364 1361 1357 1355 1352 1351 1354 1359 1366 1371
1458 1455 1451 1446 1444 1443 1440 1436 1432 1430 1427 1422 1417 1412 1407 1402 1399 1395 1391 1388 1384 1380 1377 1374 1373 1373 1371 1370 1369 1366 1365 1363 1363 1360 1361 1368 1377 1382
1453 1451 1448 1444 1442 1439 1436 1432 1429 1429 1426 1421 1416 1411 1406 1402 1399 1396 1393 1391 1388 1384 1381 1379 1378 1377 1376 1377 1375 1375 1375 1375 1376 1376 1377 1383 1392 1397
1450 1447 1444 1442 1440 1438 1434 1431 1429 1428 1424 1419 1415 1411 1407 1402 1399 1397 1395 1393 1391 1389 1387 1385 1384 1383 1383 1383 1384 1383 1384 1385 1386 1388 1392 1392 1399 1408
1447 1443 1442 1441 1438 1435 1432 1429 1428 1427 1422 1419 1415 1411 1407 1403 1401 1399 1397 1396 1394 1393 1392 1391 1390 1389 1388 1390 1393 1393 1391 1393 1394 1396 1399 1403 1406 1415
1445 1442 1440 1438 1435 1433 1430 1429 1428 1425 1421 1417 1414 1411 1407 1404 1401 1400 1399 1398 1397 1396 1396 1396 1395 1395 1395 1396 1398 1402 1402 1403 1406 1407 1410 1414 1419 1424
1441 1440 1436 1435 1432 1430 1427 1426 1426 1423 1420 1416 1413 1410 1408 1405 1402 1401 1401 1400 1399 1399 1399 1399 1399 1400 1400 1402 1403 1408 1410 1412 1414 1416 1419 1420 1424 1430
1436 1435 1433 1431 1428 1427 1423 1424 1423 1421 1418 1415 1412 1409 1407 1405 1403 1402 1402 1402 1401 1401 1401 1402 1403 1403 1405 1407 1407 1411 1416 1419 1420 1422 1426 1427 1430 1432
1429 1429 1429 1428 1424 1423 1420 1420 1420 1418 1416 1413 1410 1408 1407 1405 1404 1403 1403 1403 1402 1402 1403 1405 1405 1407 1409 1412 1413 1416 1419 1423 1426 1428 1430 1433 1435 1439